This demonstration page uses our WeatherBlox Daily Observations layout. Learn more.

Left ArrowRight Arrow

38.20091, -84.87328

Hourly Observations for January 12, 2020

Temp ( °F °C ) Dew Point ( °F °C ) Humidity (%) Winds ( mph kmh ) Pressure ( in mb ) Visibility ( mi km ) Precip ( " mm )
12:18 am 00:18 Cloudy 46 7.8 41 5 83 83 WSW 14 22 29.99 1015 10 16 0.00 0.00
12:53 am 00:53 Cloudy 44 6.7 39 3.9 83 83 WSW 16 26 30.01 1016 10 16 0.00 0.00
1:27 am 01:27 Cloudy with Light Rain 43 6.1 40 4.4 89 89 W 13 20 30.06 1018 5 8 0.00 0.00
1:53 am 01:53 Cloudy 42 5.6 38 3.3 85 85 W 14 22 30.07 1018 10 16 0.00 0.00
2:08 am 02:08 Cloudy 42 5.6 38 3.3 85 85 WSW 12 19 30.10 1019 10 16 0.00 0.00
2:53 am 02:53 Cloudy 41 5 38 3.3 89 89 WSW 8 13 30.12 1020 10 16 0.00 0.00
3:23 am 03:23 Cloudy 41 5 36 2.2 82 82 WSW 12 19 30.17 1022 10 16 0.00 0.00
3:53 am 03:53 Cloudy 41 5 35 1.7 79 79 W 12 19 30.16 1021 10 16 0.00 0.00
4:53 am 04:53 Cloudy 41 5 35 1.7 79 79 W 8 13 30.19 1022 10 16 0.00 0.00
5:53 am 05:53 Cloudy 40 4.4 35 1.7 83 83 VRB 5 7 30.22 1024 10 16 0.00 0.00
6:53 am 06:53 Cloudy 40 4.4 35 1.7 83 83 WSW 3 6 30.25 1024 10 16 0.00 0.00
7:53 am 07:53 Cloudy 40 4.4 36 2.2 86 86 W 5 7 30.27 1025 9 14 0.00 0.00
8:24 am 08:24 Cloudy 40 4.4 36 2.2 86 86 Calm 30.31 1026 10 16 0.00 0.00
8:53 am 08:53 Cloudy 40 4.4 35 1.7 83 83 SW 3 6 30.29 1026 10 16 0.00 0.00
9:53 am 09:53 Cloudy 41 5 36 2.2 82 82 WSW 5 7 30.33 1027 10 16 0.00 0.00
10:53 am 10:53 Cloudy 41 5 35 1.7 79 79 SW 6 9 30.36 1028 10 16 0.00 0.00
11:53 am 11:53 Cloudy 42 5.6 36 2.2 79 79 WSW 5 7 30.35 1028 10 16 0.00 0.00
12:53 pm 12:53 Cloudy 43 6.1 36 2.2 76 76 Calm 30.30 1026 10 16 0.00 0.00
1:53 pm 13:53 Cloudy 45 7.2 38 3.3 77 77 VRB 3 6 30.27 1025 10 16 0.00 0.00
2:53 pm 14:53 Cloudy 46 7.8 38 3.3 73 73 Calm 30.26 1025 10 16 0.00 0.00
3:53 pm 15:53 Cloudy 46 7.8 38 3.3 73 73 SW 3 6 30.25 1025 10 16 0.00 0.00
4:53 pm 16:53 Cloudy 47 8.3 38 3.3 71 71 Calm 30.26 1025 10 16 0.00 0.00
5:53 pm 17:53 Mostly Cloudy 46 7.8 39 3.9 77 77 Calm 30.27 1025 10 16 0.00 0.00
6:11 pm 18:11 Mostly Clear 45 7.2 39 3.9 80 80 Calm 30.28 1025 10 16 0.00 0.00
6:53 pm 18:53 Clear 41 5 38 3.3 89 89 Calm 30.26 1025 10 16 0.00 0.00
7:53 pm 19:53 Clear 38 3.3 36 2.2 93 93 Calm 30.26 1025 10 16 0.00 0.00
8:53 pm 20:53 Clear 38 3.3 36 2.2 93 93 Calm 30.25 1024 10 16 0.00 0.00
9:53 pm 21:53 Clear 36 2.2 34 1.1 93 93 Calm 30.26 1025 10 16 0.00 0.00
11:53 pm 23:53 Clear 34 1.1 32 0 92 92 Calm 30.26 1025 10 16 0.00 0.00

Powered by AerisWeather